Simultaneous Nadir Overpasses (SNOs) Predictions

Prediction of SNOs between AQUA and NPP Satellite Orbit:

Table of predicted SNOs for the next 14.0 days since TLE Epoch: 10/10/2014
Index Date (AQUA) Time (AQUA) Lat,Lon (AQUA) SZA (AQUA ) Date (NPP) Time (NPP) Lat,Lon (NPP) SZA (NPP ) Distance(km) Time Diff (sec)
1 10/12/2014 16:11:36 -46.02, -30.45 49.16 10/12/2014 16:10:40 -45.94, -30.16 49.15 24.06 56
2 10/12/2014 17:00:31 47.72, 137.85 129.48 10/12/2014 17:00:51 47.72, 137.89 129.41 2.97 20
3 10/12/2014 17:34:09 -72.35, 93.56 100.20 10/12/2014 17:35:22 -71.99, 91.47 100.55 81.44 73
4 10/15/2014 08:28:06 -46.01, 85.42 48.41 10/15/2014 08:27:38 -45.97, 85.61 48.42 15.58 28
5 10/15/2014 09:16:07 50.91,-104.96 127.65 10/15/2014 09:16:54 50.91,-104.95 127.55 0.45 47
6 10/18/2014 00:44:36 -46.03,-158.70 47.68 10/18/2014 00:44:36 -46.05,-158.60 47.74 7.83 0
7 10/18/2014 01:31:04 56.40, 13.61 123.85 10/18/2014 01:32:17 56.41, 13.67 123.69 4.31 73
8 10/20/2014 16:11:36 46.04, 149.56 133.04 10/20/2014 16:10:48 45.98, 149.84 133.03 22.79 48
9 10/20/2014 17:00:37 -47.74, -42.17 48.27 10/20/2014 17:01:06 -47.73, -42.16 48.34 1.49 29
10 10/20/2014 17:28:19 52.06, -68.79 64.10 10/20/2014 17:29:31 51.82, -70.19 63.67 99.29 72
11 10/23/2014 08:28:05 46.05, -94.56 133.76 10/23/2014 08:27:46 46.04, -94.38 133.70 14.34 19




NCC Satellite Simultaneous N
